Location: Unspecified
(0.0000°N, 0.0000°E)
Time: 15:53:25
(UTC+02:00)

SJ-6B - Visible Passes

Search period start: 28 March 2017 00:00
Search period end: 07 April 2017 00:00
Orbit: 511 x 585 km, 97.8° (Epoch: 26 March)

Date Brightness Start Highest point End Pass type
(mag) Time Alt. Az. Time Alt. Az. Time Alt. Az.
28 Mar 5.3 21:56:14 10° SSW 21:59:05 20° WSW 22:01:54 10° NW visible
29 Mar 5.0 21:51:07 10° SSW 21:54:13 24° WSW 21:57:16 10° NW visible
30 Mar 4.6 21:46:03 10° SSW 21:49:20 29° WSW 21:52:35 10° NW visible
31 Mar 4.3 21:41:01 10° SSW 21:44:27 34° WSW 21:47:51 10° NW visible
01 Apr 3.9 21:36:01 10° S 21:39:34 41° WSW 21:43:06 10° NNW visible
02 Apr 3.5 21:31:02 10° S 21:34:41 51° WSW 21:38:18 10° NNW visible
03 Apr 3.1 21:26:06 10° S 21:29:48 63° WSW 21:33:28 10° NNW visible
04 Apr 2.7 21:21:11 10° S 21:24:55 77° WSW 21:28:37 10° NNW visible
05 Apr 2.5 21:16:25 11° SSE 21:20:02 86° ENE 21:23:44 10° N visible
06 Apr 2.5 21:11:45 12° SSE 21:15:08 71° E 21:18:50 10° N visible
